Regional Weather Roundup
Issued by NWS

Home | Current Version | Previous Version | Text Only | Print | Product List | Glossary On
Versions: 1 2 3 4 5 6 7 8 9 10 11 12 13 14 15 16 17 18 19 20 21 22 23 24 25 26 27 28 29 30 31 32 33 34 35 36 37 38 39 40 41 42 43 44 45 46 47 48 49 50
000
ASUS43 KDTX 201910
RWRMI
MICHIGAN HOURLY REGIONAL WEATHER ROUNDUP
NATIONAL WEATHER SERVICE DETROIT/PONTIAC MI
200 PM EST SAT DEC 20 2014

NOTE: "FAIR" INDICATES FEW OR NO CLOUDS BELOW 12,000 FEET WITH NO
SIGNIFICANT WEATHER AND/OR OBSTRUCTION TO VISIBILITY.

MIZ047>049-052>055-059>063-066>070-074>076-081>083-202000-
SOUTHEAST LOWER MICHIGAN

CITY           SKY/WX    TMP DP  RH WIND       PRES   REMARKS
ADRIAN         CLOUDY    30  21  69 SW3       30.26F
ALMA           PTSUNNY   29  24  79 CALM      30.26S
ANN ARBOR      CLOUDY    30  20  66 VRB3      30.26S
BAD AXE        CLOUDY    31  23  73 CALM      30.26F
CARO           PTSUNNY   30  22  70 CALM      30.26F
DETROIT CITY   CLOUDY    32  20  61 CALM      30.27F
DETROIT        CLOUDY    30  21  69 CALM      30.28F
FLINT          CLOUDY    31  21  66 SW3       30.26F
GROSSE ILE     CLOUDY    30  23  74 CALM      30.26F
HILLSDALE      CLOUDY    29  21  72 CALM      30.23F
HOWELL         CLOUDY    28  20  71 S3        30.25S

CITY           SKY/WX    TMP DP  RH WIND       PRES   REMARKS
JACKSON        CLOUDY    29  21  72 CALM      30.24F
LAMBERTVILLE   CLOUDY    32  21  64 CALM      30.27S
LANSING        CLOUDY    30  21  69 VRB3      30.26S
LAPEER         CLOUDY    29  21  71 CALM      30.25F
MASON          CLOUDY    28  21  74 S5        30.25F WCI  23
MONROE         CLOUDY    28  25  86 CALM      30.26S FOG
MT. CLEMENS    CLOUDY    30  21  68 W6        30.25S WCI  24
PONTIAC        CLOUDY    28  19  69 S5        30.24F WCI  23
PORT HOPE        N/A     31  20  63 CALM      30.25F
PORT HURON     CLOUDY    30  21  69 SW3       30.27F
TRI CITIES     MOSUNNY   31  22  69 CALM      30.26F
TROY           CLOUDY    32  20  62 W3        30.28F
SAGINAW HB     MOSUNNY   30  23  74 CALM      30.26F
$$
MIZ043>046-050>051-056>058-064>065-071>073-077>080-202000-
SOUTHWEST LOWER MICHIGAN

CITY           SKY/WX    TMP DP  RH WIND       PRES   REMARKS
BATTLE CREEK   CLOUDY    32  22  66 SW5       30.25F WCI  27
BENTON HARBOR  CLOUDY    32  27  81 SW6       30.25F WCI  26
BIG RAPIDS     CLOUDY    29  24  83 CALM      30.23S
COLDWATER      CLOUDY    32  20  62 CALM      30.24F
FREMONT        CLOUDY    28  25  87 CALM      30.25S
HOLLAND        CLOUDY    30  24  78 S7        30.26F WCI  23
GRAND RAPIDS   CLOUDY    32  23  69 CALM      30.25F
IONIA          FAIR      31  22  69 S3        30.25S
KALAMAZOO      CLOUDY    30  23  75 S6        30.26F WCI  24
LUDINGTON      CLOUDY    31  24  78 SE3       30.25F
MARSHALL       CLOUDY    30  20  67 CALM      30.24F
MOUNT PLEASANT PTSUNNY   29  23  78 CALM      30.25F
MUSKEGON       CLOUDY    29  23  78 SE6       30.26F WCI  23
SOUTH HAVEN    CLOUDY    30  28  90 SE3       30.25F FOG
$$
MIZ016>042-202000-
NORTHERN LOWER MICHIGAN

CITY           SKY/WX    TMP DP  RH WIND       PRES   REMARKS
ALPENA         MOSUNNY   29  21  72 CALM      30.26F
BEAVER ISLAND  CLOUDY    29  25  84 SE5       30.24F WCI  24
BELLAIRE       CLOUDY    29  23  76 CALM      30.25F
CADILLAC       CLOUDY    27  20  75 CALM      30.20F
CHARLEVOIX     CLOUDY    28  23  82 E6        30.27F WCI  21
FRANKFORT      CLOUDY    30  24  79 CALM      30.24F
GAYLORD        PTSUNNY   26  19  74 VRB3      30.20F
GRAYLING       CLOUDY    26  20  79 CALM      30.23F
HARBOR SPRINGS CLOUDY    26  20  80 E6        30.24F WCI  19
HOUGHTON LAKE  CLOUDY    24  18  77 CALM      30.23F
MANISTEE       CLOUDY    28  19  69 SE5       30.25F WCI  23
OSCODA         MOSUNNY   30  22  72 CALM      30.25F
PELLSTON       CLOUDY    26  22  84 CALM      30.26F
ROGERS CITY    MOSUNNY   27  22  83 CALM      30.27F
TRAVERSE CITY  CLOUDY    30  22  72 SE3       30.24F
$$
MIZ007>008-015-202000-
EASTERN UPPER MICHIGAN

CITY           SKY/WX    TMP DP  RH WIND       PRES   REMARKS
KINROSS        MOSUNNY   27  21  80 E3        30.25F
MACKINAC ISLAN PTSUNNY   28  21  75 E3        30.24F
NEWBERRY       MOSUNNY   28  22  78 SW6       30.22F WCI  22
S. S. MARIE    MOSUNNY   25  18  74 CALM      30.24F
MUNISING         N/A     31  19  61 SW7       30.21F WCI  24
$$
MIZ004>006-011>014-085-202000-
CENTRAL UPPER MICHIGAN

CITY           SKY/WX    TMP DP  RH WIND       PRES   REMARKS
MANISTIQUE     CLOUDY    31  24  76 MISG      30.22F
ESCANABA       CLOUDY    28  21  74 CALM      30.23F
MENOMINEE      CLOUDY    27  21  80 CALM      30.23S
SAWYER-GWINN   CLOUDY    23  21  93 S5        30.17F WCI  17
$$
MIZ001>003-009>011-084-202000-
WESTERN UPPER MICHIGAN

CITY           SKY/WX    TMP DP  RH WIND       PRES   REMARKS
IRON MOUNTAIN  CLOUDY    26  22  84 SE3       30.18F
HOUGHTON       CLOUDY    25  21  85 CALM      30.15F
COPPER HARBOR    N/A     31  22  69 CALM      30.17F
IRONWOOD       CLOUDY    30  28  93 S6        30.10F WCI  24
$$

ABBREVIATIONS USED IN REMARKS
   TC - TEMPERATURE IN CELSIUS
  WCI - WIND CHILL INDEX
   HX - HEAT INDEX
  VSB - VISIBILITY



USA.gov is the U.S. government's official web portal to all federal, state and local government web resources and services.